Weather Roundup
Issued by NWS

Home | Current Version | Previous Version | Graphics & Text | Print | Product List | Glossary Off
Versions: 1 2 3 4 5 6 7 8 9 10 11 12 13 14 15 16 17 18 19 20 21 22 23 24 25 26 27 28 29 30 31 32 33 34 35 36 37 38 39 40 41 42 43 44 45 46 47 48 49 50

000
NZUS93 KARX 110910
HRRWXR

CURRENT HOURLY OBSERVATIONS ACROSS
MUCH OF THE UPPER MISSISSIPPI VALLEY
NATIONAL WEATHER SERVICE LA CROSSE WI
400 AM CDT FRI JUL 11 2014


...SOUTHEAST MINNESOTA...


CITY           SKY/WX    TMP DP  RH WIND       PRES   REMARKS
ROCHESTER      LGT RAIN  66  58  75 S14       30.07F
ROCHESTER/MAYO CLOUDY    69  55  60 S10G18    30.05R
WINONA         CLOUDY    70  59  68 S5        30.06S
AUSTIN         CLOUDY    68  55  64 S13       30.06S
ALBERT LEA     CLOUDY    70  57  64 S14G21    30.05R
DODGE CENTER   CLOUDY    66  59  77 S16       30.05S
PRESTON        CLOUDY    67  58  73 S14       30.07F
OWATONNA       CLOUDY    68  59  73 S12       30.02S
FARIBAULT      CLOUDY    72  57  60 S9        30.02R
$$

...ELSEWHERE IN MINNESOTA...


CITY           SKY/WX    TMP DP  RH WIND       PRES   REMARKS
MINNEAPOLIS    CLOUDY    73  59  61 S14G23    29.97F
INTNL FALLS    PTCLDY    63  61  93 SE6       29.86F
DULUTH         LGT RAIN  63  59  87 S8        29.97F
RED WING       CLOUDY    72  57  60 S8        30.01S
REDWOOD FALLS  CLOUDY    70  64  81 S24       29.91S
MANKATO        MOCLDY    70  57  64 S14G21    30.00S
WORTHINGTON    CLOUDY    66  64  94 S14G21    29.99F
FAIRMONT       CLOUDY    70  57  64 S14       30.02S
$$

...SOUTHWEST WISCONSIN...


CITY           SKY/WX    TMP DP  RH WIND       PRES   REMARKS
LA CROSSE      MOCLDY    72  59  63 S13       30.08S
PRAIRIE DU CHI MOCLDY    67  57  72 CALM      30.12S
BOSCOBEL       PTCLDY    63  59  87 CALM      30.12S
LONE ROCK      CLEAR     67  59  75 E3        30.14R
PLATTEVILLE    CLEAR     62  59  90 S6        30.16S
FORT MC COY    PTCLDY    65  57  75 S6        30.11S
CAMP DOUGLAS   PTCLDY    64  62  93 S5        30.12R
VIROQUA        FAIR      64  59  82 S7        30.13S
WIS DELLS      PTCLDY    62  56  82 S7        30.14S
$$

...ELSEWHERE IN WISCONSIN...


CITY           SKY/WX    TMP DP  RH WIND       PRES   REMARKS
MILWAUKEE      MOCLDY    62  51  67 S5        30.18S
MADISON        PTCLDY    66  57  72 S7        30.16R
GREEN BAY      PTCLDY    62  52  69 S7        30.14F
EAU CLAIRE     PTCLDY    68  60  75 S9        30.04S
BLACK RVR FLS  FAIR      60  60 100 CALM      30.08S
MEDFORD        PTCLDY    61  59  94 S6        30.10R
WAUSAU         PTCLDY    65  61  87 S9        30.09F
WIS RAPIDS     MOCLDY    64  60  87 S6        30.13S
MARSHFIELD     PTCLDY    62  60  93 S7        30.10S
RICE LAKE      CLOUDY    67  58  73 SE9       30.04S
$$

...NORTHEAST IOWA...


CITY           SKY/WX    TMP DP  RH WIND       PRES   REMARKS
WATERLOO       LGT RAIN  67  57  70 S12       30.09R
DUBUQUE        PTCLDY    62  59  90 S9        30.15R
DECORAH          N/A    N/A N/A N/A MISG        N/A
MASON CITY     LGT RAIN  65  60  84 S9        30.08S
CHARLES CITY   CLOUDY    66  59  77 S10       30.10S
OELWEIN        CLOUDY    66  66 100 S9        30.12S
$$

...ELSEWHERE IN IOWA...


CITY           SKY/WX    TMP DP  RH WIND       PRES   REMARKS
DES MOINES     CLOUDY    68  59  73 S10       30.06S
IOWA CITY      CLEAR     62  58  86 SE6       30.13F
FORT DODGE     CLOUDY    70  59  68 S8G16     30.07R
MARSHALLTOWN   CLOUDY    68  57  68 S12       30.08S
CEDAR RAPIDS   CLEAR     63  56  78 S7        30.11F
$$

...NORTHERN ILLINOIS...


CITY           SKY/WX    TMP DP  RH WIND       PRES   REMARKS
CHICAGO-OHARE  MOCLDY    63  52  67 SE3       30.18S
DUPAGE         PTCLDY    59  52  77 CALM      30.18S
CHICAGO-MIDWAY MOCLDY    66  53  63 S6        30.18S
MOLINE         CLEAR     63  56  78 S7        30.14S
ROCKFORD       PTCLDY    60  53  77 S5        30.19F
STERLING       PTCLDY    57  54  88 SE3       30.16F
PEORIA         PTCLDY    65  54  67 SE5       30.16F
$$

NOTE: "FAIR" INDICATES FEW OR NO CLOUDS BELOW 12,000 FEET WITH NO
SIGNIFICANT WEATHER AND/OR OBSTRUCTIONS TO VISIBILITY. WIND
SPEEDS ARE IN MILES-PER-HOUR.



USA.gov is the U.S. government's official web portal to all federal, state and local government web resources and services.